{"data":{"norad_id":58128,"epoch":"2026-09-19T00:44:42.892800Z","epoch_age_seconds":267337,"freshness":"STALE","line1":"1 58128U 23162L   26262.03105200 -.00001758  00000+0 -54364-4 0  9995","line2":"2 58128  42.9990 117.4085 0001456 261.0320  99.0366 15.27580280161914","mean_motion":15.2758028,"eccentricity":0.0001456,"inclination_deg":42.999,"raan_deg":117.4085,"arg_perigee_deg":261.032,"mean_anomaly_deg":99.0366,"bstar":-5.4364e-5,"rev_number":16191,"period_min":94.266731434894,"perigee_km":482.04926904554,"apogee_km":484.04724619256,"semimajor_km":6861.1852576191,"source":"CELESTRAK","updated_at":"2026-09-21T09:00:33.792523Z"}}